Time,TemperatureF,DewpointF,PressureIn,WindDirection,WindDirectionDegrees,WindSpeedMPH,WindSpeedGustMPH,Humidity,HourlyPrecipIn,Conditions,Clouds,dailyrainin,SoftwareType,DateUTC
2013-06-29 00:02:00,77.3,48.2,29.72,East,98,2.0,3.0,36,0.00,,,0.00,HR-IXPWINDi_r2_v1.2.,2013-06-29 06:02:00,
2013-06-29 00:08:00,76.7,48.4,29.72,ESE,106,2.0,3.0,37,0.00,,,0.00,HR-IXPWINDi_r2_v1.2.,2013-06-29 06:08:00,
2013-06-29 00:13:00,76.4,48.9,29.72,NNE,29,1.0,4.0,38,0.00,,,0.00,HR-IXPWINDi_r2_v1.2.,2013-06-29 06:13:00,
2013-06-29 00:18:00,76.1,48.6,29.72,SSE,155,0.0,4.0,38,0.00,,,0.00,HR-IXPWINDi_r2_v1.2.,2013-06-29 06:18:00,
2013-06-29 00:23:00,75.6,47.5,29.72,SE,131,4.0,5.0,37,0.00,,,0.00,HR-IXPWINDi_r2_v1.2.,2013-06-29 06:23:00,
2013-06-29 00:28:00,76.3,45.8,29.72,SW,214,2.0,5.0,34,0.00,,,0.00,HR-IXPWINDi_r2_v1.2.,2013-06-29 06:28:00,
2013-06-29 00:33:00,77.1,45.8,29.72,West,276,0.0,5.0,33,0.00,,,0.00,HR-IXPWINDi_r2_v1.2.,2013-06-29 06:33:00,
2013-06-29 00:38:00,77.1,47.3,29.72,NNE,15,1.0,4.0,35,0.00,,,0.00,HR-IXPWINDi_r2_v1.2.,2013-06-29 06:38:00,
2013-06-29 00:44:00,77.0,45.7,29.72,West,280,1.0,2.0,33,0.00,,,0.00,HR-IXPWINDi_r2_v1.2.,2013-06-29 06:44:00,
2013-06-29 00:49:00,77.2,46.6,29.72,West,280,0.0,2.0,34,0.00,,,0.00,HR-IXPWINDi_r2_v1.2.,2013-06-29 06:49:00,
2013-06-29 00:54:00,76.6,47.6,29.72,WNW,299,1.0,2.0,36,0.00,,,0.00,HR-IXPWINDi_r2_v1.2.,2013-06-29 06:54:00,
2013-06-29 01:00:00,76.1,47.9,29.72,NNW,333,0.0,2.0,37,0.00,,,0.00,HR-IXPWINDi_r2_v1.2.,2013-06-29 07:00:00,
2013-06-29 01:05:00,75.5,48.1,29.72,NE,36,2.0,2.0,38,0.00,,,0.00,HR-IXPWINDi_r2_v1.2.,2013-06-29 07:05:00,
2013-06-29 01:10:00,75.0,49.7,29.72,NNE,28,2.0,2.0,41,0.00,,,0.00,HR-IXPWINDi_r2_v1.2.,2013-06-29 07:10:00,
2013-06-29 01:15:00,74.5,49.9,29.73,NE,34,2.0,3.0,42,0.00,,,0.00,HR-IXPWINDi_r2_v1.2.,2013-06-29 07:15:00,
2013-06-29 01:20:00,74.1,48.2,29.73,NE,49,1.0,5.0,40,0.00,,,0.00,HR-IXPWINDi_r2_v1.2.,2013-06-29 07:20:00,
2013-06-29 01:26:00,74.0,48.1,29.72,NE,47,3.0,5.0,40,0.00,,,0.00,HR-IXPWINDi_r2_v1.2.,2013-06-29 07:26:00,
2013-06-29 01:31:00,74.0,47.4,29.73,East,82,1.0,4.0,39,0.00,,,0.00,HR-IXPWINDi_r2_v1.2.,2013-06-29 07:31:00,
2013-06-29 01:36:00,73.9,47.3,29.73,East,86,0.0,4.0,39,0.00,,,0.00,HR-IXPWINDi_r2_v1.2.,2013-06-29 07:36:00,
2013-06-29 01:41:00,73.7,47.2,29.73,East,86,0.0,2.0,39,0.00,,,0.00,HR-IXPWINDi_r2_v1.2.,2013-06-29 07:41:00,
2013-06-29 01:46:00,73.5,48.3,29.73,East,86,0.0,1.0,41,0.00,,,0.00,HR-IXPWINDi_r2_v1.2.,2013-06-29 07:46:00,
2013-06-29 01:51:00,73.3,46.8,29.73,East,88,0.0,1.0,39,0.00,,,0.00,HR-IXPWINDi_r2_v1.2.,2013-06-29 07:51:00,
2013-06-29 01:56:00,73.3,47.5,29.73,East,88,0.0,1.0,40,0.00,,,0.00,HR-IXPWINDi_r2_v1.2.,2013-06-29 07:56:00,
2013-06-29 02:02:00,73.2,48.1,29.73,East,84,0.0,1.0,41,0.00,,,0.00,HR-IXPWINDi_r2_v1.2.,2013-06-29 08:02:00,
2013-06-29 02:07:00,72.9,49.1,29.73,East,85,0.0,1.0,43,0.00,,,0.00,HR-IXPWINDi_r2_v1.2.,2013-06-29 08:07:00,
2013-06-29 02:12:00,72.4,49.2,29.73,East,84,1.0,1.0,44,0.00,,,0.00,HR-IXPWINDi_r2_v1.2.,2013-06-29 08:12:00,
2013-06-29 02:18:00,72.2,49.6,29.73,East,86,1.0,2.0,45,0.00,,,0.00,HR-IXPWINDi_r2_v1.2.,2013-06-29 08:18:00,
2013-06-29 02:23:00,71.9,49.4,29.73,East,84,1.0,2.0,45,0.00,,,0.00,HR-IXPWINDi_r2_v1.2.,2013-06-29 08:23:00,
2013-06-29 02:28:00,71.8,49.3,29.73,East,94,1.0,2.0,45,0.00,,,0.00,HR-IXPWINDi_r2_v1.2.,2013-06-29 08:28:00,
2013-06-29 02:33:00,71.5,49.6,29.73,West,267,2.0,2.0,46,0.00,,,0.00,HR-IXPWINDi_r2_v1.2.,2013-06-29 08:33:00,
2013-06-29 02:38:00,71.3,50.0,29.73,NE,36,1.0,3.0,47,0.00,,,0.00,HR-IXPWINDi_r2_v1.2.,2013-06-29 08:38:00,
2013-06-29 02:44:00,71.1,48.6,29.73,West,274,1.0,3.0,45,0.00,,,0.00,HR-IXPWINDi_r2_v1.2.,2013-06-29 08:44:00,
2013-06-29 02:49:00,70.9,49.6,29.74,NE,53,1.0,2.0,47,0.00,,,0.00,HR-IXPWINDi_r2_v1.2.,2013-06-29 08:49:00,
2013-06-29 02:54:00,70.7,48.9,29.74,SW,224,3.0,3.0,46,0.00,,,0.00,HR-IXPWINDi_r2_v1.2.,2013-06-29 08:54:00,
2013-06-29 02:59:00,70.7,50.0,29.74,SSW,194,0.0,3.0,48,0.00,,,0.00,HR-IXPWINDi_r2_v1.2.,2013-06-29 08:59:00,
2013-06-29 03:05:00,70.6,48.8,29.74,SSW,198,1.0,3.0,46,0.00,,,0.00,HR-IXPWINDi_r2_v1.2.,2013-06-29 09:05:00,
2013-06-29 03:10:00,70.7,49.4,29.73,NW,326,1.0,2.0,47,0.00,,,0.00,HR-IXPWINDi_r2_v1.2.,2013-06-29 09:10:00,
2013-06-29 03:15:00,70.6,49.3,29.74,NNW,341,0.0,2.0,47,0.00,,,0.00,HR-IXPWINDi_r2_v1.2.,2013-06-29 09:15:00,
2013-06-29 03:20:00,70.5,49.8,29.74,North,4,1.0,2.0,48,0.00,,,0.00,HR-IXPWINDi_r2_v1.2.,2013-06-29 09:20:00,
2013-06-29 03:25:00,70.3,49.6,29.74,NNE,18,1.0,3.0,48,0.00,,,0.00,HR-IXPWINDi_r2_v1.2.,2013-06-29 09:25:00,
2013-06-29 03:30:00,70.3,49.1,29.74,WNW,287,1.0,3.0,47,0.00,,,0.00,HR-IXPWINDi_r2_v1.2.,2013-06-29 09:30:00,
2013-06-29 03:35:00,70.4,48.6,29.74,NW,321,1.0,2.0,46,0.00,,,0.00,HR-IXPWINDi_r2_v1.2.,2013-06-29 09:35:00,
2013-06-29 03:40:00,70.3,49.1,29.74,NW,309,1.0,2.0,47,0.00,,,0.00,HR-IXPWINDi_r2_v1.2.,2013-06-29 09:40:00,
2013-06-29 03:46:00,70.3,49.1,29.74,North,356,0.0,2.0,47,0.00,,,0.00,HR-IXPWINDi_r2_v1.2.,2013-06-29 09:46:00,
2013-06-29 03:51:00,70.3,48.5,29.74,SSE,168,0.0,2.0,46,0.00,,,0.00,HR-IXPWINDi_r2_v1.2.,2013-06-29 09:51:00,
2013-06-29 03:56:00,70.1,48.9,29.75,SSE,167,1.0,2.0,47,0.00,,,0.00,HR-IXPWINDi_r2_v1.2.,2013-06-29 09:56:00,
2013-06-29 04:02:00,70.1,48.3,29.75,SSE,168,0.0,1.0,46,0.00,,,0.00,HR-IXPWINDi_r2_v1.2.,2013-06-29 10:02:00,
2013-06-29 04:07:00,70.2,48.4,29.75,SSE,157,0.0,1.0,46,0.00,,,0.00,HR-IXPWINDi_r2_v1.2.,2013-06-29 10:07:00,
2013-06-29 04:12:00,70.5,48.7,29.75,SW,215,0.0,1.0,46,0.00,,,0.00,HR-IXPWINDi_r2_v1.2.,2013-06-29 10:12:00,
2013-06-29 04:17:00,70.5,48.7,29.75,SW,215,0.0,1.0,46,0.00,,,0.00,HR-IXPWINDi_r2_v1.2.,2013-06-29 10:17:00,
2013-06-29 04:22:00,70.4,48.6,29.75,SW,215,0.0,1.0,46,0.00,,,0.00,HR-IXPWINDi_r2_v1.2.,2013-06-29 10:22:00,
2013-06-29 04:28:00,70.4,48.0,29.75,SW,215,0.0,1.0,45,0.00,,,0.00,HR-IXPWINDi_r2_v1.2.,2013-06-29 10:28:00,
2013-06-29 04:33:00,70.6,48.2,29.75,SW,216,0.0,1.0,45,0.00,,,0.00,HR-IXPWINDi_r2_v1.2.,2013-06-29 10:33:00,
2013-06-29 04:38:00,70.6,47.6,29.76,SW,215,0.0,1.0,44,0.00,,,0.00,HR-IXPWINDi_r2_v1.2.,2013-06-29 10:38:00,
2013-06-29 04:44:00,70.5,48.1,29.76,SW,215,1.0,1.0,45,0.00,,,0.00,HR-IXPWINDi_r2_v1.2.,2013-06-29 10:44:00,
2013-06-29 04:49:00,70.5,48.7,29.76,SW,215,1.0,1.0,46,0.00,,,0.00,HR-IXPWINDi_r2_v1.2.,2013-06-29 10:49:00,
2013-06-29 04:54:00,70.1,50.0,29.76,SSE,161,0.0,1.0,49,0.00,,,0.00,HR-IXPWINDi_r2_v1.2.,2013-06-29 10:54:00,
2013-06-29 04:59:00,69.6,49.5,29.76,ENE,67,2.0,2.0,49,0.00,,,0.00,HR-IXPWINDi_r2_v1.2.,2013-06-29 10:59:00,
2013-06-29 05:04:00,69.1,50.2,29.76,NE,55,1.0,2.0,51,0.00,,,0.00,HR-IXPWINDi_r2_v1.2.,2013-06-29 11:04:00,
2013-06-29 05:09:00,68.7,50.3,29.76,ENE,60,1.0,2.0,52,0.00,,,0.00,HR-IXPWINDi_r2_v1.2.,2013-06-29 11:09:00,
2013-06-29 05:15:00,68.4,50.6,29.76,NE,53,1.0,2.0,53,0.00,,,0.00,HR-IXPWINDi_r2_v1.2.,2013-06-29 11:15:00,
2013-06-29 05:20:00,68.0,50.2,29.76,ENE,63,0.0,2.0,53,0.00,,,0.00,HR-IXPWINDi_r2_v1.2.,2013-06-29 11:20:00,
2013-06-29 05:25:00,67.6,50.3,29.76,ENE,61,1.0,2.0,54,0.00,,,0.00,HR-IXPWINDi_r2_v1.2.,2013-06-29 11:25:00,
2013-06-29 05:30:00,67.5,50.7,29.76,ENE,63,0.0,1.0,55,0.00,,,0.00,HR-IXPWINDi_r2_v1.2.,2013-06-29 11:30:00,
2013-06-29 05:35:00,67.2,50.4,29.76,SE,130,0.0,1.0,55,0.00,,,0.00,HR-IXPWINDi_r2_v1.2.,2013-06-29 11:35:00,
2013-06-29 05:41:00,66.7,50.5,29.76,SE,130,0.0,1.0,56,0.00,,,0.00,HR-IXPWINDi_r2_v1.2.,2013-06-29 11:41:00,
2013-06-29 05:46:00,66.4,50.7,29.76,SE,130,0.0,0.0,57,0.00,,,0.00,HR-IXPWINDi_r2_v1.2.,2013-06-29 11:46:00,
2013-06-29 05:51:00,66.3,50.6,29.76,SE,130,0.0,1.0,57,0.00,,,0.00,HR-IXPWINDi_r2_v1.2.,2013-06-29 11:51:00,
2013-06-29 05:56:00,66.0,50.3,29.76,SE,129,0.0,1.0,57,0.00,,,0.00,HR-IXPWINDi_r2_v1.2.,2013-06-29 11:56:00,
2013-06-29 06:01:00,65.5,50.7,29.76,SE,130,0.0,0.0,59,0.00,,,0.00,HR-IXPWINDi_r2_v1.2.,2013-06-29 12:01:00,
2013-06-29 06:07:00,65.6,51.3,29.76,SE,129,0.0,1.0,60,0.00,,,0.00,HR-IXPWINDi_r2_v1.2.,2013-06-29 12:07:00,
2013-06-29 06:12:00,65.7,51.8,29.76,SE,130,0.0,1.0,61,0.00,,,0.00,HR-IXPWINDi_r2_v1.2.,2013-06-29 12:12:00,
2013-06-29 06:17:00,65.7,52.3,29.76,ENE,76,2.0,2.0,62,0.00,,,0.00,HR-IXPWINDi_r2_v1.2.,2013-06-29 12:17:00,
2013-06-29 06:22:00,65.4,51.5,29.76,ENE,58,0.0,2.0,61,0.00,,,0.00,HR-IXPWINDi_r2_v1.2.,2013-06-29 12:22:00,
2013-06-29 06:27:00,65.4,52.0,29.76,ENE,58,0.0,2.0,62,0.00,,,0.00,HR-IXPWINDi_r2_v1.2.,2013-06-29 12:27:00,
2013-06-29 06:33:00,65.5,52.5,29.76,ENE,58,0.0,1.0,63,0.00,,,0.00,HR-IXPWINDi_r2_v1.2.,2013-06-29 12:33:00,
2013-06-29 06:38:00,65.4,52.8,29.76,ENE,58,0.0,2.0,64,0.00,,,0.00,HR-IXPWINDi_r2_v1.2.,2013-06-29 12:38:00,
2013-06-29 06:43:00,65.3,52.3,29.76,ENE,58,0.0,2.0,63,0.00,,,0.00,HR-IXPWINDi_r2_v1.2.,2013-06-29 12:43:00,
2013-06-29 06:48:00,65.4,52.0,29.77,West,278,1.0,2.0,62,0.00,,,0.00,HR-IXPWINDi_r2_v1.2.,2013-06-29 12:48:00,
2013-06-29 06:53:00,65.8,51.5,29.77,West,278,1.0,2.0,60,0.00,,,0.00,HR-IXPWINDi_r2_v1.2.,2013-06-29 12:53:00,
2013-06-29 06:58:00,66.2,51.4,29.77,West,278,1.0,1.0,59,0.00,,,0.00,HR-IXPWINDi_r2_v1.2.,2013-06-29 12:58:00,
2013-06-29 07:04:00,66.7,51.4,29.77,West,280,1.0,1.0,58,0.00,,,0.00,HR-IXPWINDi_r2_v1.2.,2013-06-29 13:04:00,
2013-06-29 07:09:00,66.9,51.6,29.77,West,280,1.0,1.0,58,0.00,,,0.00,HR-IXPWINDi_r2_v1.2.,2013-06-29 13:09:00,
2013-06-29 07:14:00,67.4,51.6,29.77,West,280,0.0,1.0,57,0.00,,,0.00,HR-IXPWINDi_r2_v1.2.,2013-06-29 13:14:00,
2013-06-29 07:19:00,68.1,51.3,29.77,West,280,0.0,2.0,55,0.00,,,0.00,HR-IXPWINDi_r2_v1.2.,2013-06-29 13:19:00,
2013-06-29 07:24:00,68.7,51.8,29.77,West,280,0.0,2.0,55,0.00,,,0.00,HR-IXPWINDi_r2_v1.2.,2013-06-29 13:24:00,
2013-06-29 07:29:00,69.3,51.4,29.77,West,280,0.0,1.0,53,0.00,,,0.00,HR-IXPWINDi_r2_v1.2.,2013-06-29 13:29:00,
2013-06-29 07:34:00,70.0,51.5,29.77,West,280,1.0,1.0,52,0.00,,,0.00,HR-IXPWINDi_r2_v1.2.,2013-06-29 13:34:00,
2013-06-29 07:40:00,70.6,52.6,29.77,West,280,0.0,1.0,53,0.00,,,0.00,HR-IXPWINDi_r2_v1.2.,2013-06-29 13:40:00,
2013-06-29 07:45:00,71.1,52.5,29.77,West,280,1.0,1.0,52,0.00,,,0.00,HR-IXPWINDi_r2_v1.2.,2013-06-29 13:45:00,
2013-06-29 07:50:00,71.5,51.8,29.76,West,280,1.0,1.0,50,0.00,,,0.00,HR-IXPWINDi_r2_v1.2.,2013-06-29 13:50:00,
2013-06-29 07:55:00,71.8,51.0,29.77,West,280,3.0,3.0,48,0.00,,,0.00,HR-IXPWINDi_r2_v1.2.,2013-06-29 13:55:00,
2013-06-29 08:01:00,72.2,51.4,29.77,WNW,287,3.0,4.0,48,0.00,,,0.00,HR-IXPWINDi_r2_v1.2.,2013-06-29 14:01:00,
2013-06-29 08:06:00,72.6,52.3,29.77,WNW,287,2.0,4.0,49,0.00,,,0.00,HR-IXPWINDi_r2_v1.2.,2013-06-29 14:06:00,
2013-06-29 08:11:00,72.8,51.4,29.77,NW,305,3.0,4.0,47,0.00,,,0.00,HR-IXPWINDi_r2_v1.2.,2013-06-29 14:11:00,
2013-06-29 08:16:00,73.4,51.3,29.77,NW,311,2.0,4.0,46,0.00,,,0.00,HR-IXPWINDi_r2_v1.2.,2013-06-29 14:16:00,
2013-06-29 08:21:00,73.9,52.4,29.77,West,270,1.0,3.0,47,0.00,,,0.00,HR-IXPWINDi_r2_v1.2.,2013-06-29 14:21:00,
2013-06-29 08:27:00,74.7,51.3,29.77,WNW,300,2.0,3.0,44,0.00,,,0.00,HR-IXPWINDi_r2_v1.2.,2013-06-29 14:27:00,
2013-06-29 08:32:00,75.3,51.2,29.77,NW,314,2.0,3.0,43,0.00,,,0.00,HR-IXPWINDi_r2_v1.2.,2013-06-29 14:32:00,
2013-06-29 08:37:00,76.1,50.7,29.77,WNW,284,1.0,3.0,41,0.00,,,0.00,HR-IXPWINDi_r2_v1.2.,2013-06-29 14:37:00,
2013-06-29 08:42:00,76.7,50.5,29.77,West,276,2.0,3.0,40,0.00,,,0.00,HR-IXPWINDi_r2_v1.2.,2013-06-29 14:42:00,
2013-06-29 08:48:00,77.4,48.3,29.77,WNW,286,2.0,4.0,36,0.00,,,0.00,HR-IXPWINDi_r2_v1.2.,2013-06-29 14:48:00,
2013-06-29 08:53:00,77.9,48.8,29.77,WNW,285,1.0,4.0,36,0.00,,,0.00,HR-IXPWINDi_r2_v1.2.,2013-06-29 14:53:00,
2013-06-29 08:58:00,78.4,49.2,29.77,NW,312,2.0,4.0,36,0.00,,,0.00,HR-IXPWINDi_r2_v1.2.,2013-06-29 14:58:00,
2013-06-29 09:03:00,79.3,49.2,29.77,NW,305,2.0,4.0,35,0.00,,,0.00,HR-IXPWINDi_r2_v1.2.,2013-06-29 15:03:00,
2013-06-29 09:08:00,80.0,49.1,29.76,WNW,302,1.0,3.0,34,0.00,,,0.00,HR-IXPWINDi_r2_v1.2.,2013-06-29 15:08:00,
2013-06-29 09:13:00,80.9,49.1,29.77,WSW,249,1.0,2.0,33,0.00,,,0.00,HR-IXPWINDi_r2_v1.2.,2013-06-29 15:13:00,
2013-06-29 09:19:00,82.1,49.3,29.76,WSW,256,0.0,2.0,32,0.00,,,0.00,HR-IXPWINDi_r2_v1.2.,2013-06-29 15:19:00,
2013-06-29 09:24:00,83.7,50.7,29.76,NE,52,2.0,2.0,32,0.00,,,0.00,HR-IXPWINDi_r2_v1.2.,2013-06-29 15:24:00,
2013-06-29 09:29:00,84.3,52.8,29.76,ENE,64,3.0,3.0,34,0.00,,,0.00,HR-IXPWINDi_r2_v1.2.,2013-06-29 15:29:00,
2013-06-29 09:35:00,84.4,50.4,29.76,ENE,60,1.0,3.0,31,0.00,,,0.00,HR-IXPWINDi_r2_v1.2.,2013-06-29 15:35:00,
2013-06-29 09:40:00,85.1,51.9,29.76,ENE,67,1.0,3.0,32,0.00,,,0.00,HR-IXPWINDi_r2_v1.2.,2013-06-29 15:40:00,
2013-06-29 09:45:00,85.5,50.5,29.76,NE,37,4.0,4.0,30,0.00,,,0.00,HR-IXPWINDi_r2_v1.2.,2013-06-29 15:45:00,
2013-06-29 09:51:00,85.6,50.6,29.76,East,82,1.0,5.0,30,0.00,,,0.00,HR-IXPWINDi_r2_v1.2.,2013-06-29 15:51:00,
2013-06-29 09:56:00,86.8,50.7,29.75,NE,37,2.0,5.0,29,0.00,,,0.00,HR-IXPWINDi_r2_v1.2.,2013-06-29 15:56:00,
2013-06-29 10:01:00,87.7,49.6,29.75,NE,56,0.0,2.0,27,0.00,,,0.00,HR-IXPWINDi_r2_v1.2.,2013-06-29 16:01:00,
2013-06-29 10:06:00,88.1,49.9,29.75,ENE,60,2.0,3.0,27,0.00,,,0.00,HR-IXPWINDi_r2_v1.2.,2013-06-29 16:06:00,
2013-06-29 10:12:00,88.1,48.9,29.75,East,92,0.0,3.0,26,0.00,,,0.00,HR-IXPWINDi_r2_v1.2.,2013-06-29 16:12:00,
2013-06-29 10:17:00,88.4,48.1,29.75,NNE,26,1.0,3.0,25,0.00,,,0.00,HR-IXPWINDi_r2_v1.2.,2013-06-29 16:17:00,
2013-06-29 10:22:00,89.1,48.7,29.75,NNE,28,1.0,4.0,25,0.00,,,0.00,HR-IXPWINDi_r2_v1.2.,2013-06-29 16:22:00,
2013-06-29 10:27:00,89.6,50.2,29.75,East,79,2.0,4.0,26,0.00,,,0.00,HR-IXPWINDi_r2_v1.2.,2013-06-29 16:27:00,
2013-06-29 10:33:00,89.9,48.3,29.75,NE,46,1.0,4.0,24,0.00,,,0.00,HR-IXPWINDi_r2_v1.2.,2013-06-29 16:33:00,
2013-06-29 10:38:00,90.3,48.6,29.75,SE,146,2.0,4.0,24,0.00,,,0.00,HR-IXPWINDi_r2_v1.2.,2013-06-29 16:38:00,
2013-06-29 10:43:00,91.1,50.4,29.75,East,98,1.0,4.0,25,0.00,,,0.00,HR-IXPWINDi_r2_v1.2.,2013-06-29 16:43:00,
2013-06-29 10:48:00,91.4,48.4,29.74,ENE,70,2.0,4.0,23,0.00,,,0.00,HR-IXPWINDi_r2_v1.2.,2013-06-29 16:48:00,
2013-06-29 10:54:00,91.1,49.3,29.74,East,86,3.0,5.0,24,0.00,,,0.00,HR-IXPWINDi_r2_v1.2.,2013-06-29 16:54:00,
2013-06-29 10:59:00,91.5,48.5,29.74,NE,48,2.0,5.0,23,0.00,,,0.00,HR-IXPWINDi_r2_v1.2.,2013-06-29 16:59:00,
2013-06-29 11:04:00,92.2,50.2,29.74,ESE,117,3.0,5.0,24,0.00,,,0.00,HR-IXPWINDi_r2_v1.2.,2013-06-29 17:04:00,
2013-06-29 11:09:00,91.6,46.1,29.74,ENE,57,4.0,7.0,21,0.00,,,0.00,HR-IXPWINDi_r2_v1.2.,2013-06-29 17:09:00,
2013-06-29 11:14:00,92.0,47.7,29.74,East,99,2.0,7.0,22,0.00,,,0.00,HR-IXPWINDi_r2_v1.2.,2013-06-29 17:14:00,
2013-06-29 11:19:00,92.5,45.6,29.74,NE,41,1.0,5.0,20,0.00,,,0.00,HR-IXPWINDi_r2_v1.2.,2013-06-29 17:19:00,
2013-06-29 11:25:00,92.7,47.0,29.73,ESE,121,1.0,5.0,21,0.00,,,0.00,HR-IXPWINDi_r2_v1.2.,2013-06-29 17:25:00,
2013-06-29 11:30:00,93.0,47.3,29.73,ESE,117,2.0,5.0,21,0.00,,,0.00,HR-IXPWINDi_r2_v1.2.,2013-06-29 17:30:00,
2013-06-29 11:35:00,93.8,50.4,29.73,ENE,60,2.0,5.0,23,0.00,,,0.00,HR-IXPWINDi_r2_v1.2.,2013-06-29 17:35:00,
2013-06-29 11:40:00,94.1,49.4,29.73,ESE,117,2.0,5.0,22,0.00,,,0.00,HR-IXPWINDi_r2_v1.2.,2013-06-29 17:40:00,
2013-06-29 11:45:00,94.1,45.5,29.72,NE,40,7.0,7.0,19,0.00,,,0.00,HR-IXPWINDi_r2_v1.2.,2013-06-29 17:45:00,
2013-06-29 11:50:00,93.7,42.3,29.72,NE,39,3.0,7.0,17,0.00,,,0.00,HR-IXPWINDi_r2_v1.2.,2013-06-29 17:50:00,
2013-06-29 11:55:00,93.8,45.3,29.72,ENE,64,3.0,7.0,19,0.00,,,0.00,HR-IXPWINDi_r2_v1.2.,2013-06-29 17:55:00,
2013-06-29 12:01:00,94.2,42.7,29.72,ESE,105,2.0,5.0,17,0.00,,,0.00,HR-IXPWINDi_r2_v1.2.,2013-06-29 18:01:00,
2013-06-29 12:06:00,94.4,44.4,29.72,ESE,103,3.0,5.0,18,0.00,,,0.00,HR-IXPWINDi_r2_v1.2.,2013-06-29 18:06:00,
2013-06-29 12:11:00,95.2,43.5,29.71,NE,40,3.0,5.0,17,0.00,,,0.00,HR-IXPWINDi_r2_v1.2.,2013-06-29 18:11:00,
2013-06-29 12:16:00,95.0,41.8,29.71,East,91,2.0,6.0,16,0.00,,,0.00,HR-IXPWINDi_r2_v1.2.,2013-06-29 18:16:00,
2013-06-29 12:22:00,94.9,43.3,29.71,ENE,75,1.0,6.0,17,0.00,,,0.00,HR-IXPWINDi_r2_v1.2.,2013-06-29 18:22:00,
2013-06-29 12:27:00,96.4,42.9,29.71,West,278,1.0,3.0,16,0.00,,,0.00,HR-IXPWINDi_r2_v1.2.,2013-06-29 18:27:00,
2013-06-29 12:32:00,98.3,42.7,29.70,East,95,1.0,3.0,15,0.00,,,0.00,HR-IXPWINDi_r2_v1.2.,2013-06-29 18:32:00,
2013-06-29 12:37:00,98.0,42.5,29.70,NE,46,5.0,9.0,15,0.00,,,0.00,HR-IXPWINDi_r2_v1.2.,2013-06-29 18:37:00,
2013-06-29 12:42:00,96.6,46.2,29.70,ESE,107,1.0,9.0,18,0.00,,,0.00,HR-IXPWINDi_r2_v1.2.,2013-06-29 18:42:00,
2013-06-29 12:48:00,97.0,45.0,29.70,East,93,1.0,5.0,17,0.00,,,0.00,HR-IXPWINDi_r2_v1.2.,2013-06-29 18:48:00,
2013-06-29 12:53:00,98.0,45.8,29.69,NNW,344,3.0,5.0,17,0.00,,,0.00,HR-IXPWINDi_r2_v1.2.,2013-06-29 18:53:00,
2013-06-29 12:58:00,97.7,43.9,29.69,NNE,18,3.0,6.0,16,0.00,,,0.00,HR-IXPWINDi_r2_v1.2.,2013-06-29 18:58:00,
2013-06-29 13:03:00,97.3,45.2,29.69,NE,51,5.0,8.0,17,0.00,,,0.00,HR-IXPWINDi_r2_v1.2.,2013-06-29 19:03:00,
2013-06-29 13:08:00,97.5,45.4,29.68,NNE,32,1.0,8.0,17,0.00,,,0.00,HR-IXPWINDi_r2_v1.2.,2013-06-29 19:08:00,
2013-06-29 13:13:00,97.9,42.4,29.68,WNW,286,4.0,8.0,15,0.00,,,0.00,HR-IXPWINDi_r2_v1.2.,2013-06-29 19:13:00,
2013-06-29 13:18:00,97.4,42.0,29.68,NNE,23,3.0,9.0,15,0.00,,,0.00,HR-IXPWINDi_r2_v1.2.,2013-06-29 19:18:00,
2013-06-29 13:23:00,97.6,42.2,29.67,WNW,302,1.0,9.0,15,0.00,,,0.00,HR-IXPWINDi_r2_v1.2.,2013-06-29 19:23:00,
2013-06-29 13:28:00,98.9,41.4,29.67,SW,224,0.0,5.0,14,0.00,,,0.00,HR-IXPWINDi_r2_v1.2.,2013-06-29 19:28:00,
2013-06-29 13:33:00,100.0,45.8,29.66,North,357,3.0,6.0,16,0.00,,,0.00,HR-IXPWINDi_r2_v1.2.,2013-06-29 19:33:00,
2013-06-29 13:39:00,99.8,40.2,29.66,SSE,159,1.0,6.0,13,0.00,,,0.00,HR-IXPWINDi_r2_v1.2.,2013-06-29 19:39:00,
2013-06-29 13:44:00,100.1,42.4,29.65,East,79,1.0,5.0,14,0.00,,,0.00,HR-IXPWINDi_r2_v1.2.,2013-06-29 19:44:00,
2013-06-29 13:49:00,101.1,43.1,29.65,ESE,109,1.0,4.0,14,0.00,,,0.00,HR-IXPWINDi_r2_v1.2.,2013-06-29 19:49:00,
2013-06-29 13:54:00,101.3,39.3,29.65,WSW,244,2.0,6.0,12,0.00,,,0.00,HR-IXPWINDi_r2_v1.2.,2013-06-29 19:54:00,
2013-06-29 14:00:00,100.4,38.6,29.64,WNW,296,5.0,9.0,12,0.00,,,0.00,HR-IXPWINDi_r2_v1.2.,2013-06-29 20:00:00,
2013-06-29 14:05:00,99.4,37.9,29.64,West,276,3.0,9.0,12,0.00,,,0.00,HR-IXPWINDi_r2_v1.2.,2013-06-29 20:05:00,
2013-06-29 14:10:00,99.3,37.8,29.63,NW,305,1.0,8.0,12,0.00,,,0.00,HR-IXPWINDi_r2_v1.2.,2013-06-29 20:10:00,
2013-06-29 14:16:00,100.7,38.9,29.63,WNW,284,2.0,6.0,12,0.00,,,0.00,HR-IXPWINDi_r2_v1.2.,2013-06-29 20:16:00,
2013-06-29 14:21:00,101.1,36.9,29.63,NNE,27,2.0,10.0,11,0.00,,,0.00,HR-IXPWINDi_r2_v1.2.,2013-06-29 20:21:00,
2013-06-29 14:26:00,100.7,38.9,29.62,North,356,6.0,10.0,12,0.00,,,0.00,HR-IXPWINDi_r2_v1.2.,2013-06-29 20:26:00,
2013-06-29 14:31:00,100.8,38.9,29.62,NNE,18,4.0,7.0,12,0.00,,,0.00,HR-IXPWINDi_r2_v1.2.,2013-06-29 20:31:00,
2013-06-29 14:37:00,100.3,38.5,29.62,NE,53,4.0,8.0,12,0.00,,,0.00,HR-IXPWINDi_r2_v1.2.,2013-06-29 20:37:00,
2013-06-29 14:42:00,100.2,38.5,29.62,NE,53,6.0,8.0,12,0.00,,,0.00,HR-IXPWINDi_r2_v1.2.,2013-06-29 20:42:00,
2013-06-29 14:47:00,100.4,38.6,29.61,North,358,2.0,8.0,12,0.00,,,0.00,HR-IXPWINDi_r2_v1.2.,2013-06-29 20:47:00,
2013-06-29 14:52:00,101.3,39.3,29.61,WNW,302,2.0,8.0,12,0.00,,,0.00,HR-IXPWINDi_r2_v1.2.,2013-06-29 20:52:00,
2013-06-29 14:57:00,101.2,37.0,29.61,SSW,210,2.0,6.0,11,0.00,,,0.00,HR-IXPWINDi_r2_v1.2.,2013-06-29 20:57:00,
2013-06-29 15:02:00,102.3,35.5,29.61,NW,319,4.0,5.0,10,0.00,,,0.00,HR-IXPWINDi_r2_v1.2.,2013-06-29 21:02:00,
2013-06-29 15:08:00,102.9,35.9,29.61,WNW,288,2.0,5.0,10,0.00,,,0.00,HR-IXPWINDi_r2_v1.2.,2013-06-29 21:08:00,
2013-06-29 15:13:00,102.9,35.9,29.61,ENE,77,2.0,6.0,10,0.00,,,0.00,HR-IXPWINDi_r2_v1.2.,2013-06-29 21:13:00,
2013-06-29 15:18:00,102.2,35.4,29.60,ESE,120,1.0,6.0,10,0.00,,,0.00,HR-IXPWINDi_r2_v1.2.,2013-06-29 21:18:00,
2013-06-29 15:24:00,102.5,38.0,29.60,NNW,348,1.0,5.0,11,0.00,,,0.00,HR-IXPWINDi_r2_v1.2.,2013-06-29 21:24:00,
2013-06-29 15:29:00,102.0,39.9,29.60,ENE,61,5.0,7.0,12,0.00,,,0.00,HR-IXPWINDi_r2_v1.2.,2013-06-29 21:29:00,
2013-06-29 15:34:00,101.9,35.2,29.60,NE,49,3.0,12.0,10,0.00,,,0.00,HR-IXPWINDi_r2_v1.2.,2013-06-29 21:34:00,
2013-06-29 15:39:00,102.0,35.2,29.59,NNE,27,5.0,12.0,10,0.00,,,0.00,HR-IXPWINDi_r2_v1.2.,2013-06-29 21:39:00,
2013-06-29 15:44:00,102.9,38.3,29.59,NE,41,6.0,9.0,11,0.00,,,0.00,HR-IXPWINDi_r2_v1.2.,2013-06-29 21:44:00,
2013-06-29 15:49:00,102.9,35.9,29.59,NE,44,3.0,9.0,10,0.00,,,0.00,HR-IXPWINDi_r2_v1.2.,2013-06-29 21:49:00,
2013-06-29 15:55:00,103.4,33.6,29.58,WNW,288,2.0,9.0,9,0.00,,,0.00,HR-IXPWINDi_r2_v1.2.,2013-06-29 21:55:00,
2013-06-29 16:00:00,103.8,33.9,29.59,NNE,23,0.0,6.0,9,0.00,,,0.00,HR-IXPWINDi_r2_v1.2.,2013-06-29 22:00:00,
2013-06-29 16:05:00,103.6,33.8,29.58,East,80,2.0,6.0,9,0.00,,,0.00,HR-IXPWINDi_r2_v1.2.,2013-06-29 22:05:00,
2013-06-29 16:10:00,103.1,36.1,29.58,ENE,64,4.0,9.0,10,0.00,,,0.00,HR-IXPWINDi_r2_v1.2.,2013-06-29 22:10:00,
2013-06-29 16:15:00,101.7,39.6,29.58,NE,37,1.0,9.0,12,0.00,,,0.00,HR-IXPWINDi_r2_v1.2.,2013-06-29 22:15:00,
2013-06-29 16:20:00,100.4,38.6,29.58,NE,53,6.0,17.0,12,0.00,,,0.00,HR-IXPWINDi_r2_v1.2.,2013-06-29 22:20:00,
2013-06-29 16:26:00,98.5,41.1,29.58,ENE,69,5.0,17.0,14,0.00,,,0.00,HR-IXPWINDi_r2_v1.2.,2013-06-29 22:26:00,
2013-06-29 16:31:00,97.3,43.6,29.59,North,6,10.0,16.0,16,0.00,,,0.00,HR-IXPWINDi_r2_v1.2.,2013-06-29 22:31:00,
2013-06-29 16:36:00,96.2,44.3,29.60,NE,46,6.0,16.0,17,0.00,,,0.00,HR-IXPWINDi_r2_v1.2.,2013-06-29 22:36:00,
2013-06-29 16:41:00,95.9,39.1,29.60,North,11,14.0,15.0,14,0.00,,,0.00,HR-IXPWINDi_r2_v1.2.,2013-06-29 22:41:00,
2013-06-29 16:46:00,96.1,37.3,29.60,NW,316,6.0,16.0,13,0.00,,,0.00,HR-IXPWINDi_r2_v1.2.,2013-06-29 22:46:00,
2013-06-29 16:51:00,96.6,35.7,29.59,NE,56,10.0,17.0,12,0.00,,,0.00,HR-IXPWINDi_r2_v1.2.,2013-06-29 22:51:00,
2013-06-29 16:56:00,95.6,42.3,29.58,SE,129,3.0,17.0,16,0.00,,,0.00,HR-IXPWINDi_r2_v1.2.,2013-06-29 22:56:00,
2013-06-29 17:02:00,94.9,47.6,29.58,SE,135,1.0,13.0,20,0.00,,,0.00,HR-IXPWINDi_r2_v1.2.,2013-06-29 23:02:00,
2013-06-29 17:07:00,95.8,42.4,29.58,NE,39,4.0,9.0,16,0.00,,,0.00,HR-IXPWINDi_r2_v1.2.,2013-06-29 23:07:00,
2013-06-29 17:12:00,95.9,44.1,29.58,ENE,67,10.0,12.0,17,0.00,,,0.00,HR-IXPWINDi_r2_v1.2.,2013-06-29 23:12:00,
2013-06-29 17:18:00,96.1,44.2,29.59,NE,46,6.0,13.0,17,0.00,,,0.00,HR-IXPWINDi_r2_v1.2.,2013-06-29 23:18:00,
2013-06-29 17:23:00,96.3,42.8,29.58,NE,51,5.0,13.0,16,0.00,,,0.00,HR-IXPWINDi_r2_v1.2.,2013-06-29 23:23:00,
2013-06-29 17:28:00,94.8,46.1,29.59,ENE,73,9.0,15.0,19,0.00,,,0.00,HR-IXPWINDi_r2_v1.2.,2013-06-29 23:28:00,
2013-06-29 17:33:00,93.5,46.4,29.59,East,101,5.0,15.0,20,0.00,,,0.00,HR-IXPWINDi_r2_v1.2.,2013-06-29 23:33:00,
2013-06-29 17:39:00,92.7,47.0,29.60,East,96,4.0,17.0,21,0.00,,,0.00,HR-IXPWINDi_r2_v1.2.,2013-06-29 23:39:00,
2013-06-29 17:44:00,92.8,44.5,29.59,East,89,5.0,17.0,19,0.00,,,0.00,HR-IXPWINDi_r2_v1.2.,2013-06-29 23:44:00,
2013-06-29 17:50:00,93.3,43.5,29.59,ESE,110,6.0,12.0,18,0.00,,,0.00,HR-IXPWINDi_r2_v1.2.,2013-06-29 23:50:00,
2013-06-29 17:55:00,93.6,43.7,29.59,NE,49,5.0,10.0,18,0.00,,,0.00,HR-IXPWINDi_r2_v1.2.,2013-06-29 23:55:00,
2013-06-29 18:00:00,93.5,43.6,29.59,South,184,5.0,11.0,18,0.00,,,0.00,HR-IXPWINDi_r2_v1.2.,2013-06-30 00:00:00,
2013-06-29 18:05:00,93.1,43.3,29.58,ESE,112,5.0,13.0,18,0.00,,,0.00,HR-IXPWINDi_r2_v1.2.,2013-06-30 00:05:00,
2013-06-29 18:10:00,92.9,43.2,29.59,SSW,207,2.0,13.0,18,0.00,,,0.00,HR-IXPWINDi_r2_v1.2.,2013-06-30 00:10:00,
2013-06-29 18:16:00,93.4,42.1,29.59,East,87,1.0,7.0,17,0.00,,,0.00,HR-IXPWINDi_r2_v1.2.,2013-06-30 00:16:00,
2013-06-29 18:21:00,93.5,42.2,29.60,SW,232,5.0,7.0,17,0.00,,,0.00,HR-IXPWINDi_r2_v1.2.,2013-06-30 00:21:00,
2013-06-29 18:26:00,94.0,42.6,29.60,South,184,3.0,8.0,17,0.00,,,0.00,HR-IXPWINDi_r2_v1.2.,2013-06-30 00:26:00,
2013-06-29 18:31:00,94.0,39.3,29.60,SW,225,11.0,19.0,15,0.00,,,0.00,HR-IXPWINDi_r2_v1.2.,2013-06-30 00:31:00,
2013-06-29 18:36:00,93.9,37.5,29.60,WSW,237,12.0,24.0,14,0.00,,,0.00,HR-IXPWINDi_r2_v1.2.,2013-06-30 00:36:00,
2013-06-29 18:41:00,94.0,37.6,29.61,SW,218,11.0,24.0,14,0.00,,,0.00,HR-IXPWINDi_r2_v1.2.,2013-06-30 00:41:00,
2013-06-29 18:46:00,93.7,39.1,29.62,SW,225,9.0,22.0,15,0.00,,,0.00,HR-IXPWINDi_r2_v1.2.,2013-06-30 00:46:00,
2013-06-29 18:51:00,93.3,38.8,29.63,SW,231,12.0,22.0,15,0.00,,,0.00,HR-IXPWINDi_r2_v1.2.,2013-06-30 00:51:00,
2013-06-29 18:57:00,93.1,40.3,29.64,WNW,284,7.0,17.0,16,0.00,,,0.00,HR-IXPWINDi_r2_v1.2.,2013-06-30 00:57:00,
2013-06-29 19:02:00,92.3,41.2,29.65,WNW,290,13.0,16.0,17,0.00,,,0.00,HR-IXPWINDi_r2_v1.2.,2013-06-30 01:02:00,
2013-06-29 19:07:00,91.7,40.7,29.64,WSW,246,8.0,21.0,17,0.00,,,0.00,HR-IXPWINDi_r2_v1.2.,2013-06-30 01:07:00,
2013-06-29 19:12:00,91.3,40.4,29.65,WNW,284,11.0,21.0,17,0.00,,,0.00,HR-IXPWINDi_r2_v1.2.,2013-06-30 01:12:00,
2013-06-29 19:17:00,90.7,42.8,29.65,WNW,290,9.0,17.0,19,0.00,,,0.00,HR-IXPWINDi_r2_v1.2.,2013-06-30 01:17:00,
2013-06-29 19:22:00,90.0,42.2,29.64,WNW,290,8.0,16.0,19,0.00,,,0.00,HR-IXPWINDi_r2_v1.2.,2013-06-30 01:22:00,
2013-06-29 19:28:00,89.7,42.0,29.64,WNW,284,4.0,15.0,19,0.00,,,0.00,HR-IXPWINDi_r2_v1.2.,2013-06-30 01:28:00,
2013-06-29 19:33:00,89.2,42.9,29.64,WNW,287,5.0,12.0,20,0.00,,,0.00,HR-IXPWINDi_r2_v1.2.,2013-06-30 01:33:00,
2013-06-29 19:38:00,88.8,43.8,29.64,West,281,5.0,12.0,21,0.00,,,0.00,HR-IXPWINDi_r2_v1.2.,2013-06-30 01:38:00,
2013-06-29 19:43:00,89.0,41.4,29.64,West,278,7.0,9.0,19,0.00,,,0.00,HR-IXPWINDi_r2_v1.2.,2013-06-30 01:43:00,
2013-06-29 19:48:00,89.5,40.4,29.64,WNW,284,5.0,9.0,18,0.00,,,0.00,HR-IXPWINDi_r2_v1.2.,2013-06-30 01:48:00,
2013-06-29 19:53:00,89.7,40.6,29.64,West,266,3.0,8.0,18,0.00,,,0.00,HR-IXPWINDi_r2_v1.2.,2013-06-30 01:53:00,
2013-06-29 19:59:00,89.9,40.7,29.63,West,271,3.0,8.0,18,0.00,,,0.00,HR-IXPWINDi_r2_v1.2.,2013-06-30 01:59:00,
2013-06-29 20:04:00,89.9,42.1,29.63,WNW,284,1.0,8.0,19,0.00,,,0.00,HR-IXPWINDi_r2_v1.2.,2013-06-30 02:04:00,
2013-06-29 20:09:00,89.7,42.0,29.63,West,263,1.0,6.0,19,0.00,,,0.00,HR-IXPWINDi_r2_v1.2.,2013-06-30 02:09:00,
2013-06-29 20:14:00,89.6,41.9,29.62,WSW,240,0.0,4.0,19,0.00,,,0.00,HR-IXPWINDi_r2_v1.2.,2013-06-30 02:14:00,
2013-06-29 20:19:00,89.5,41.8,29.61,SE,139,1.0,4.0,19,0.00,,,0.00,HR-IXPWINDi_r2_v1.2.,2013-06-30 02:19:00,
2013-06-29 20:24:00,89.5,41.8,29.62,SE,143,0.0,3.0,19,0.00,,,0.00,HR-IXPWINDi_r2_v1.2.,2013-06-30 02:24:00,
2013-06-29 20:29:00,89.5,43.1,29.62,SE,133,0.0,2.0,20,0.00,,,0.00,HR-IXPWINDi_r2_v1.2.,2013-06-30 02:29:00,
2013-06-29 20:34:00,89.0,41.4,29.62,SE,142,2.0,2.0,19,0.00,,,0.00,HR-IXPWINDi_r2_v1.2.,2013-06-30 02:34:00,
2013-06-29 20:40:00,88.9,39.9,29.62,SW,229,4.0,4.0,18,0.00,,,0.00,HR-IXPWINDi_r2_v1.2.,2013-06-30 02:40:00,
2013-06-29 20:45:00,88.8,41.2,29.63,SW,232,0.0,4.0,19,0.00,,,0.00,HR-IXPWINDi_r2_v1.2.,2013-06-30 02:45:00,
2013-06-29 20:50:00,88.3,40.8,29.63,SW,222,3.0,4.0,19,0.00,,,0.00,HR-IXPWINDi_r2_v1.2.,2013-06-30 02:50:00,
2013-06-29 20:55:00,88.1,40.7,29.63,WSW,243,1.0,4.0,19,0.00,,,0.00,HR-IXPWINDi_r2_v1.2.,2013-06-30 02:55:00,
2013-06-29 21:01:00,87.9,40.5,29.63,West,278,0.0,4.0,19,0.00,,,0.00,HR-IXPWINDi_r2_v1.2.,2013-06-30 03:01:00,
2013-06-29 21:06:00,87.7,40.3,29.63,WNW,284,3.0,4.0,19,0.00,,,0.00,HR-IXPWINDi_r2_v1.2.,2013-06-30 03:06:00,
2013-06-29 21:11:00,87.7,40.3,29.63,WNW,294,3.0,4.0,19,0.00,,,0.00,HR-IXPWINDi_r2_v1.2.,2013-06-30 03:11:00,
2013-06-29 21:16:00,87.2,41.2,29.64,NW,309,3.0,4.0,20,0.00,,,0.00,HR-IXPWINDi_r2_v1.2.,2013-06-30 03:16:00,
2013-06-29 21:21:00,86.4,41.8,29.64,WNW,287,3.0,6.0,21,0.00,,,0.00,HR-IXPWINDi_r2_v1.2.,2013-06-30 03:21:00,
2013-06-29 21:27:00,85.8,41.3,29.64,West,280,1.0,6.0,21,0.00,,,0.00,HR-IXPWINDi_r2_v1.2.,2013-06-30 03:27:00,
2013-06-29 21:32:00,85.4,42.2,29.65,West,260,2.0,4.0,22,0.00,,,0.00,HR-IXPWINDi_r2_v1.2.,2013-06-30 03:32:00,
2013-06-29 21:37:00,85.1,43.1,29.65,WNW,293,1.0,4.0,23,0.00,,,0.00,HR-IXPWINDi_r2_v1.2.,2013-06-30 03:37:00,
2013-06-29 21:42:00,84.5,41.5,29.65,West,263,3.0,4.0,22,0.00,,,0.00,HR-IXPWINDi_r2_v1.2.,2013-06-30 03:42:00,
2013-06-29 21:47:00,84.3,41.3,29.66,WNW,282,2.0,4.0,22,0.00,,,0.00,HR-IXPWINDi_r2_v1.2.,2013-06-30 03:47:00,
2013-06-29 21:52:00,83.9,42.1,29.66,WNW,284,2.0,4.0,23,0.00,,,0.00,HR-IXPWINDi_r2_v1.2.,2013-06-30 03:52:00,
2013-06-29 21:58:00,84.0,41.1,29.66,WNW,294,1.0,3.0,22,0.00,,,0.00,HR-IXPWINDi_r2_v1.2.,2013-06-30 03:58:00,
2013-06-29 22:09:00,83.3,42.7,29.67,West,276,3.0,3.0,24,0.00,,,0.00,HR-IXPWINDi_r2_v1.2.,2013-06-30 04:09:00,
2013-06-29 22:14:00,83.1,41.5,29.68,WNW,294,4.0,5.0,23,0.00,,,0.00,HR-IXPWINDi_r2_v1.2.,2013-06-30 04:14:00,
2013-06-29 22:20:00,83.0,41.4,29.69,NNW,345,3.0,5.0,23,0.00,,,0.00,HR-IXPWINDi_r2_v1.2.,2013-06-30 04:20:00,
2013-06-29 22:25:00,83.2,39.2,29.69,NNE,19,4.0,7.0,21,0.00,,,0.00,HR-IXPWINDi_r2_v1.2.,2013-06-30 04:25:00,
2013-06-29 22:30:00,83.4,41.7,29.69,NNE,33,2.0,7.0,23,0.00,,,0.00,HR-IXPWINDi_r2_v1.2.,2013-06-30 04:30:00,
2013-06-29 22:35:00,82.8,42.3,29.69,NE,41,13.0,13.0,24,0.00,,,0.00,HR-IXPWINDi_r2_v1.2.,2013-06-30 04:35:00,
2013-06-29 22:41:00,82.4,43.0,29.69,NE,38,3.0,13.0,25,0.00,,,0.00,HR-IXPWINDi_r2_v1.2.,2013-06-30 04:41:00,
2013-06-29 22:46:00,81.7,43.5,29.69,NE,55,1.0,13.0,26,0.00,,,0.00,HR-IXPWINDi_r2_v1.2.,2013-06-30 04:46:00,
2013-06-29 22:51:00,81.0,42.9,29.69,SSE,163,1.0,5.0,26,0.00,,,0.00,HR-IXPWINDi_r2_v1.2.,2013-06-30 04:51:00,
2013-06-29 22:56:00,80.8,42.7,29.69,West,260,0.0,3.0,26,0.00,,,0.00,HR-IXPWINDi_r2_v1.2.,2013-06-30 04:56:00,
2013-06-29 23:01:00,80.7,43.6,29.69,West,264,1.0,3.0,27,0.00,,,0.00,HR-IXPWINDi_r2_v1.2.,2013-06-30 05:01:00,
2013-06-29 23:06:00,80.1,44.0,29.69,South,191,2.0,3.0,28,0.00,,,0.00,HR-IXPWINDi_r2_v1.2.,2013-06-30 05:06:00,
2013-06-29 23:11:00,79.8,42.8,29.70,SSE,164,1.0,4.0,27,0.00,,,0.00,HR-IXPWINDi_r2_v1.2.,2013-06-30 05:11:00,
2013-06-29 23:17:00,79.8,42.8,29.70,SE,145,0.0,4.0,27,0.00,,,0.00,HR-IXPWINDi_r2_v1.2.,2013-06-30 05:17:00,
2013-06-29 23:22:00,80.1,43.1,29.70,SE,146,1.0,3.0,27,0.00,,,0.00,HR-IXPWINDi_r2_v1.2.,2013-06-30 05:22:00,
2013-06-29 23:27:00,80.2,43.2,29.70,SE,135,0.0,3.0,27,0.00,,,0.00,HR-IXPWINDi_r2_v1.2.,2013-06-30 05:27:00,
2013-06-29 23:32:00,79.8,43.8,29.70,SE,136,0.0,2.0,28,0.00,,,0.00,HR-IXPWINDi_r2_v1.2.,2013-06-30 05:32:00,
2013-06-29 23:37:00,79.0,44.9,29.70,SE,137,0.0,1.0,30,0.00,,,0.00,HR-IXPWINDi_r2_v1.2.,2013-06-30 05:37:00,
2013-06-29 23:42:00,78.3,45.2,29.70,SE,137,1.0,1.0,31,0.00,,,0.00,HR-IXPWINDi_r2_v1.2.,2013-06-30 05:42:00,
2013-06-29 23:47:00,77.6,46.2,29.70,SE,137,0.0,1.0,33,0.00,,,0.00,HR-IXPWINDi_r2_v1.2.,2013-06-30 05:47:00,
2013-06-29 23:52:00,76.8,46.3,29.70,SE,136,0.0,1.0,34,0.00,,,0.00,HR-IXPWINDi_r2_v1.2.,2013-06-30 05:52:00,
2013-06-29 23:57:00,76.8,46.3,29.70,East,94,1.0,2.0,34,0.00,,,0.00,HR-IXPWINDi_r2_v1.2.,2013-06-30 05:57:00,